Time,B instrument,Bx,By,Bz,sigma B,Ion instrument,Status,Tp_par,Tp_perp,carrot,r_sun,clat,clong,earth_he_angle,n_p,vp_x,vp_y,vp_z,vth_p_par,vth_p_perp
1980-05-18 00:25:17,-1,nan,nan,nan,nan,1,4,nan,nan,1695,0.38749963,-6.4654417,240.34473,315.11035,nan,nan,nan,nan,nan,nan
1980-05-18 00:25:57,1,-0.04,-1.77,-17.42,0.704344,1,1,53418.2,38611.8,1695,0.38749963,-6.4654417,240.34082,315.11035,77.2823,237.888,6.02658,2.63231,29.6963,25.2475
1980-05-18 00:26:25,1,-0.13,-2.53,-17.5,0.86267,1,1,57154.4,43657.6,1695,0.38744968,-6.5398741,240.24237,315.01971,82.3297,234.952,5.93506,5.09305,30.7173,26.8465
1980-05-18 00:26:38,1,-0.03,-2.84,-17.94,0.817863,1,1,54183.6,40483.0,1695,0.38749141,-6.4652653,240.33545,315.11279,78.9443,238.371,7.17385,1.27731,29.9083,25.852
1980-05-18 00:27:06,1,0.34,-3.54,-17.91,0.322025,1,1,48418.6,43442.1,1695,0.38748312,-6.4650879,240.33398,315.11523,79.5235,237.489,4.96533,1.53468,28.2725,26.7802
1980-05-18 00:27:46,1,-0.777778,-4.02222,-17.5556,1.01617,1,1,48069.9,39684.6,1695,0.38748312,-6.4650879,240.32617,315.11523,77.9808,238.516,3.72202,1.45127,28.1705,25.5958
1980-05-18 00:28:27,1,1.27778,-1.54444,-17.3,0.4592,1,1,54218.1,43630.8,1695,0.38747483,-6.4649115,240.32471,315.11768,79.5132,241.368,7.59855,3.928,29.9178,26.8383
1980-05-18 00:29:07,1,-0.655556,-2.06667,-17.3889,0.357633,1,1,51320.3,43358.9,1695,0.38746661,-6.464735,240.31934,315.12012,78.0544,238.422,7.55141,3.60404,29.1073,26.7545
1980-05-18 00:29:48,1,-0.56,-1.47,-17.65,0.522494,1,1,49315.9,42698.0,1695,0.38746661,-6.464735,240.31543,315.12012,77.6361,235.752,6.94705,3.32384,28.5333,26.5498
1980-05-18 00:30:28,1,-0.325,-2.2625,-17.7,0.119242,1,1,47717.3,42363.8,1695,0.38745832,-6.4645576,240.31006,315.12256,78.5367,235.725,6.79334,3.1458,28.067,26.4457
1980-05-18 00:31:09,1,-0.73,-2.83,-17.54,0.581893,1,1,50845.8,45566.8,1695,0.38745004,-6.4643812,240.30469,315.125,80.5592,235.738,7.34254,2.70775,28.9725,27.4272
1980-05-18 00:31:49,1,0.675,-2.4125,-17.7,0.188331,1,1,50685.4,44345.8,1695,0.38745004,-6.4643812,240.30078,315.125,79.9944,238.432,6.19405,3.51295,28.9267,27.0573
1980-05-18 00:32:30,1,1.72222,-2.24444,-17.5667,0.402462,1,1,50162.7,45313.9,1695,0.38744181,-6.4642048,240.29541,315.12744,81.027,239.798,5.61045,4.08064,28.7772,27.351
1980-05-18 00:33:10,1,1.12222,-2.57778,-17.7,0.331849,1,1,48448.7,41039.1,1695,0.38743353,-6.4640284,240.29395,315.12988,77.8968,241.199,6.2464,3.87996,28.2813,26.029
1980-05-18 00:33:51,1,0.766667,-2.87778,-17.7,0.273974,1,1,47116.1,44932.5,1695,0.38743353,-6.4640284,240.28613,315.12988,79.8697,240.185,5.70344,3.73504,27.8896,27.2357
1980-05-18 00:34:31,1,0.666667,-2.95556,-18.0556,0.347122,1,1,46496.3,42481.4,1695,0.38742524,-6.463851,240.28076,315.13232,76.8574,240.69,5.92341,2.88807,27.7056,26.4824
1980-05-18 00:35:12,1,0.722222,-2.91111,-18.0556,0.462681,1,1,46156.0,43655.9,1695,0.38741702,-6.4636745,240.2793,315.13477,79.8016,240.665,4.70618,3.25422,27.604,26.846
1980-05-18 00:35:52,1,0.422222,-2.77778,-18.1444,0.28545,1,1,47878.6,42906.4,1695,0.38741702,-6.4636745,240.27148,315.13477,79.5015,239.868,5.27479,2.65584,28.1144,26.6145
1980-05-18 00:36:33,1,0.888889,-2.68889,-18.1444,0.329983,1,1,43165.2,43084.4,1695,0.38740873,-6.4634981,240.27026,315.13745,81.1874,240.808,4.57052,2.53787,26.6947,26.6697
1980-05-18 00:37:13,1,1.06,-2.99,-18.04,0.426263,1,1,44411.9,41611.8,1695,0.38740045,-6.4633217,240.26489,315.13989,78.8733,241.135,5.00197,2.9558,27.0774,26.21
1980-05-18 00:37:54,1,1.3,-2.93,-17.74,0.290689,1,1,48504.1,43904.8,1695,0.38740045,-6.4633217,240.25708,315.13989,79.8015,239.888,5.58986,2.61741,28.2974,26.9224
1980-05-18 00:38:34,1,1.47778,-2.85556,-17.6556,0.24037,1,1,47600.1,41423.3,1695,0.38739222,-6.4631443,240.25562,315.14233,77.4517,240.328,5.78551,3.24567,28.0325,26.1505
1980-05-18 00:39:15,1,1.18,-3.02,-18.06,0.227156,1,1,46035.2,43442.9,1695,0.38738394,-6.4629679,240.25024,315.14478,78.2418,240.968,5.75622,2.22278,27.5679,26.7804
1980-05-18 00:39:55,1,-0.144444,-3.37778,-17.9667,0.464014,1,1,45896.0,41717.7,1695,0.38738394,-6.4629679,240.24634,315.14478,78.2101,238.631,5.62831,2.60516,27.5261,26.2433
1980-05-18 00:40:36,1,0.56,-2.72,-18.22,0.36,1,1,44717.0,42566.2,1695,0.38737565,-6.4627914,240.24097,315.14722,79.8006,239.502,6.51177,1.98699,27.1703,26.5088
1980-05-18 00:41:16,1,1.32222,-1.97778,-18.1,0.285017,1,1,46772.8,41543.6,1695,0.38736743,-6.462615,240.2395,315.14966,78.2211,239.958,6.50174,1.57047,27.7878,26.1885
1980-05-18 00:41:57,1,2.77778,-1.44444,-18.1111,0.819666,1,1,48219.1,43924.1,1695,0.38736737,-6.4626141,240.23169,315.14966,80.5982,241.159,7.4764,2.33733,28.2142,26.9283
1980-05-18 00:42:37,1,2.02222,-0.233333,-18.6222,0.49566,1,1,44053.5,41641.4,1695,0.38735914,-6.4624376,240.22632,315.1521,79.9327,240.629,9.11643,1.58948,26.968,26.2193
1980-05-18 00:43:18,1,3.44444,-2.34444,-17.9111,0.451335,1,1,43955.4,42590.5,1695,0.38735086,-6.4622612,240.22485,315.15454,81.0362,241.066,7.26514,2.01337,26.9379,26.5164
1980-05-18 00:43:58,1,3.12222,-2.22222,-18.5778,0.303071,1,1,43573.8,40832.9,1695,0.38735086,-6.4622612,240.21704,315.15454,78.5447,240.742,6.92232,0.99662,26.8207,25.9635
1980-05-18 00:44:39,1,3.24,-3.52,-18.56,0.26533,1,1,43903.3,41031.8,1695,0.38734257,-6.4620848,240.21558,315.15698,77.795,241.063,4.7341,0.881797,26.922,26.0267
1980-05-18 00:45:19,1,2.58889,-2.68889,-17.8667,0.461613,1,1,45189.0,41210.5,1695,0.38733435,-6.4619083,240.21021,315.15942,80.9195,239.946,5.45266,2.91132,27.3133,26.0833
1980-05-18 00:46:00,1,1.4,-3.9,-18.0667,0.349603,1,1,44554.3,42600.5,1695,0.38732606,-6.461731,240.20483,315.16187,80.3776,239.179,4.83432,2.71119,27.1208,26.5195
1980-05-18 00:46:40,1,1.05556,-4.31111,-17.9778,0.320878,1,1,42469.0,41154.5,1695,0.38732606,-6.461731,240.20093,315.16187,79.8191,239.106,5.70579,2.4127,26.4785,26.0655
1980-05-18 00:47:21,1,1.07,-4.26,-18.16,0.361801,1,1,44928.0,43516.7,1695,0.38731778,-6.4615545,240.19556,315.16431,80.3449,238.88,5.39788,1.41375,27.2343,26.8032
1980-05-18 00:48:00,1,1.02222,-3.84444,-17.8333,0.346054,1,1,45007.7,40811.4,1695,0.38730955,-6.4613781,240.19434,315.16699,79.24,239.035,5.94016,1.82423,27.2585,25.9566
1980-05-18 00:50:02,-1,nan,nan,nan,nan,1,3,nan,nan,1695,0.38729298,-6.4610243,240.17969,315.17188,nan,239.043,4.52733,1.95363,nan,nan
1980-05-18 00:50:43,1,2.13333,-2.87778,-18.5111,0.371849,1,1,41883.0,38778.7,1695,0.38729298,-6.4610243,240.17188,315.17188,79.3436,238.125,7.7145,1.11483,26.2952,25.302
1980-05-18 00:51:24,1,1.97778,-3.58889,-18.3778,0.385861,1,1,40288.9,40338.6,1695,0.38728476,-6.4608479,240.17041,315.17432,81.4623,238.129,7.51602,0.61105,25.79,25.8059
1980-05-18 00:52:04,1,1.75,-3.6,-18.28,0.384838,1,1,39008.3,39129.6,1695,0.38727647,-6.4606714,240.16504,315.17676,76.7557,237.904,7.38559,0.371431,25.3768,25.4162
1980-05-18 00:52:45,1,0.7,-3.85,-17.3,0.410488,1,1,47663.5,41939.0,1695,0.38727647,-6.4606714,240.16113,315.17676,83.2798,240.499,6.26903,-3.66383,28.0512,26.3128
1980-05-18 00:53:25,1,1.01,-3.15,-17.54,0.497795,1,1,49196.9,40150.5,1695,0.38726819,-6.460494,240.15576,315.1792,82.8074,243.315,5.93138,-2.75654,28.4988,25.7456
1980-05-18 00:54:06,1,1.52222,-3.74444,-17.5778,0.690679,1,1,49139.4,42361.9,1695,0.38725996,-6.4603176,240.15039,315.18164,84.7142,244.118,7.31213,-3.90268,28.4821,26.4451
1980-05-18 00:54:46,1,1.35556,-3.46667,-18.9667,0.483301,1,1,57549.6,46165.0,1695,0.38725996,-6.4603176,240.14648,315.18164,81.9977,241.1,8.19367,1.78936,30.8233,27.6067
1980-05-18 00:55:27,1,3.6,-2.69,-19.11,0.549363,1,1,50940.1,46798.7,1695,0.38725168,-6.4601412,240.14111,315.18408,77.9736,240.095,7.1925,4.34169,28.9993,27.7955
1980-05-18 00:56:07,1,4.97778,-1.67778,-17.7444,1.51486,1,1,58270.1,44857.0,1695,0.38724339,-6.4599648,240.13965,315.18652,83.0981,243.531,6.36,1.2281,31.0156,27.2128
1980-05-18 00:56:48,1,6.02222,-2.83333,-18.0667,0.759792,1,1,47042.2,47737.4,1695,0.38724339,-6.4599638,240.13184,315.18652,77.0635,243.322,7.33036,5.19614,27.8678,28.0729
1980-05-18 00:57:28,1,7.57778,-0.633333,-16.5889,0.826266,1,1,53082.7,45010.6,1695,0.38723516,-6.4597874,240.12646,315.18896,79.8115,240.552,4.4984,3.61975,29.6029,27.2593
1980-05-18 00:58:09,1,1.96667,-4.4,-17.2222,0.78142,1,1,63149.4,46941.4,1695,0.38722688,-6.4596109,240.125,315.19141,88.7755,249.872,9.47276,-0.0593393,32.2881,27.8379
1980-05-18 00:58:49,1,4.97778,-2.54444,-17.1111,0.667222,1,1,60948.3,42411.3,1695,0.38722688,-6.4596109,240.11719,315.19141,78.2312,246.553,8.14119,1.18714,31.7204,26.4605
1980-05-18 00:59:30,1,3.76667,-2.77778,-17.5556,0.871638,1,1,61135.3,47440.5,1695,0.38721859,-6.4594345,240.11572,315.19385,85.1968,246.564,7.32176,3.13789,31.769,27.9855
1980-05-18 01:00:10,1,7.67778,-2.68889,-16.4667,0.397834,1,1,51729.9,44746.1,1695,0.38721037,-6.4592581,240.1106,315.19653,75.4469,242.936,7.73794,5.47162,29.2233,27.1791
1980-05-18 01:00:51,1,7.48,-3.41,-16.1,0.50448,1,1,55949.8,46257.4,1695,0.38721031,-6.4592571,240.10669,315.19653,80.3256,244.655,7.62195,2.48931,30.3918,27.6343
1980-05-18 01:01:31,1,8.08889,-3.42222,-15.9444,0.237268,1,1,53562.4,44523.7,1695,0.38720208,-6.4590788,240.10132,315.19897,77.6558,244.233,7.26587,4.19466,29.7364,27.1115
1980-05-18 01:02:12,1,9.64,-3.28,-15.7,0.453872,1,1,53165.0,48549.8,1695,0.38719386,-6.4589014,240.09595,315.20142,77.7024,243.106,8.71656,7.01747,29.6259,28.3108
1980-05-18 01:02:52,1,9.9,-3.92,-15.38,0.350999,1,1,50838.1,45870.3,1695,0.3871938,-6.4589005,240.09204,315.20142,74.3754,243.134,8.34364,7.29113,28.9703,27.5184
1980-05-18 01:03:33,1,9.63333,-4.18889,-15.5889,0.361752,1,1,50718.0,49001.2,1695,0.38718557,-6.4587231,240.08667,315.20386,76.5356,242.661,7.3699,7.60069,28.936,28.4421
1980-05-18 01:04:13,1,9.55556,-4.46667,-15.5,0.258677,1,1,49940.1,44798.5,1695,0.38717735,-6.4585447,240.08521,315.2063,73.7779,242.789,7.12138,7.81228,28.7133,27.195
1980-05-18 01:04:54,1,8.78889,-5.14444,-15.8556,0.393465,1,1,51538.9,46692.2,1695,0.38717735,-6.4585438,240.07739,315.2063,77.0718,242.447,6.59614,7.56465,29.1693,27.7639
1980-05-18 01:05:34,1,7.32222,-5.32222,-15.1,0.599176,1,1,59508.2,43617.5,1695,0.38716906,-6.4583664,240.07202,315.20874,80.0494,244.176,3.04154,2.06676,31.3434,26.8342
1980-05-18 01:06:15,1,8.1,-5.77778,-15.8111,0.34066,1,1,55558.2,46600.2,1695,0.38716084,-6.4581881,240.07056,315.21118,79.2105,242.923,5.22198,5.44659,30.2853,27.7365
1980-05-18 01:06:54,1,9.56,-6.96,-14.12,0.407922,1,1,52467.8,46870.9,1695,0.38716084,-6.4581871,240.06274,315.21118,76.8376,243.211,5.81737,7.78733,29.4309,27.8169
1980-05-18 01:43:08,-1,nan,nan,nan,nan,1,3,nan,nan,1695,0.38685542,-6.4515896,239.82202,315.30249,nan,226.534,7.70119,2.30387,nan,nan
1980-05-18 01:43:48,1,-10.575,-3.125,-13.9375,0.564441,1,1,45418.9,46191.2,1695,0.38685542,-6.4515896,239.81812,315.30249,82.5518,227.498,11.0776,6.08062,27.3827,27.6145
1980-05-18 01:44:29,1,-10.325,-3.9875,-13.8,0.316968,1,1,42847.7,48812.4,1695,0.38684714,-6.4514112,239.81274,315.30493,82.637,228.038,5.93596,6.45271,26.5963,28.3872
1980-05-18 01:45:09,1,-11.0857,-4.12857,-12.8571,0.29761,1,1,44463.9,46462.8,1695,0.38683891,-6.4512329,239.80737,315.30737,83.3222,227.603,6.50711,5.8358,27.0933,27.6956
1980-05-18 01:45:51,1,-10.975,-4.1125,-12.9,0.336108,1,1,45015.8,49899.7,1695,0.38683891,-6.4512329,239.80347,315.30737,84.9127,225.853,6.71301,6.00507,27.2609,28.7016
1980-05-18 01:46:31,1,-10.7,-4.2875,-13.15,0.464859,1,1,49243.8,45541.3,1695,0.38683063,-6.4510546,239.7981,315.30981,82.8872,226.883,7.52169,5.55491,28.5124,27.4196
1980-05-18 01:47:12,1,-10.9,-3.8375,-13.1,0.521866,1,1,46218.9,46345.2,1695,0.3868224,-6.4508762,239.79663,315.31226,84.255,227.288,7.19096,4.45413,27.6228,27.6605
1980-05-18 01:47:52,1,-9.6375,-3.0875,-13.4,0.553116,1,1,53907.2,46982.7,1695,0.3868224,-6.4508762,239.78882,315.31226,80.5593,229.556,9.02681,4.54687,29.8319,27.8501
1980-05-18 01:48:33,1,-11.1625,-2.4375,-11.025,1.04955,1,1,54340.5,49386.2,1695,0.38681412,-6.4506979,239.78345,315.3147,82.8815,229.033,6.20309,6.39353,29.9516,28.5536
1980-05-18 01:49:13,1,-9.45556,-2.73333,-12.3333,2.62345,1,1,55801.9,46882.0,1695,0.38680589,-6.4505196,239.78198,315.31714,84.2982,230.65,9.40837,6.12917,30.3517,27.8202
1980-05-18 01:49:54,1,-0.91,-3.91,-17.15,0.860407,1,1,56633.1,47739.0,1695,0.38680589,-6.4505196,239.77417,315.31714,87.1745,235.61,7.99583,0.317407,30.5769,28.0734
1980-05-18 01:50:34,1,-2.4,-3.9375,-17.15,0.387097,1,1,59030.1,47274.3,1695,0.38679761,-6.4503412,239.77295,315.31982,83.2463,235.129,6.79666,1.85637,31.2172,27.9364
1980-05-18 01:51:15,1,-2.39,-4.92,-16.92,0.523546,1,1,58119.3,48191.6,1695,0.38678938,-6.4501629,239.76758,315.32227,84.7558,232.777,6.35293,2.10629,30.9755,28.2061
1980-05-18 01:51:55,1,-1.9,-3.9375,-17.35,0.427017,1,1,59611.8,44424.4,1695,0.38678938,-6.4501629,239.75977,315.32227,82.1572,235.729,8.8353,2.02475,31.3707,27.0812
1980-05-18 01:52:36,1,-1.74,-4.6,-17.39,0.991615,1,1,55403.4,47361.3,1695,0.3867811,-6.4499846,239.7583,315.32471,83.8151,232.714,8.23564,-0.0749538,30.2431,27.9621
1980-05-18 01:53:16,1,-1.075,-4.025,-16.8,0.470372,1,1,60627.3,46226.2,1695,0.38677287,-6.4498062,239.75293,315.32715,81.2483,235.466,7.39846,0.885776,31.6368,27.625
1980-05-18 01:53:57,1,-1.96667,-4.65556,-16.7778,0.547497,1,1,60349.7,47584.2,1695,0.38677287,-6.4498062,239.74902,315.32715,83.3756,233.676,6.53449,1.65281,31.5643,28.0278
1980-05-18 01:54:37,1,-1.8625,-5.0,-16.85,0.390312,1,1,59570.7,43244.3,1695,0.38676459,-6.4496279,239.74365,315.32959,79.993,234.984,7.56128,2.20205,31.3599,26.7191
1980-05-18 01:55:18,1,-1.74,-4.62,-17.25,0.544518,1,1,54288.7,49109.4,1695,0.38675636,-6.4494495,239.73828,315.33203,82.1325,236.321,6.9633,-0.320098,29.9373,28.4735
1980-05-18 01:55:58,1,-5.75556,-4.11111,-16.3444,0.778412,1,1,51255.6,49232.9,1695,0.38675636,-6.4494495,239.73438,315.33203,86.3419,229.782,8.3928,1.8431,29.089,28.5092
1980-05-18 01:56:39,1,4.41111,-5.46667,-16.3,0.60451,1,1,65560.9,44298.9,1695,0.38674808,-6.4492712,239.729,315.33447,83.2805,238.252,7.94282,0.97051,32.8988,27.043
1980-05-18 01:57:19,1,3.71111,-5.9,-15.9889,0.50966,1,1,64329.0,44883.2,1695,0.38673985,-6.4490929,239.72754,315.33691,80.2602,238.135,8.32366,1.99109,32.5883,27.2207
1980-05-18 01:58:00,1,0.644444,-5.76667,-17.4,0.678415,1,1,54826.7,47378.7,1695,0.38673162,-6.4489155,239.72217,315.33936,81.7523,235.54,7.03142,0.466228,30.0853,27.9672
1980-05-18 01:58:40,1,-0.9625,-5.0,-17.7,0.387097,1,1,55595.1,44576.0,1695,0.38673156,-6.4489145,239.71826,315.33936,82.3437,237.745,5.74066,-0.184731,30.2954,27.1274
1980-05-18 01:59:21,1,-1.3,-5.14,-17.38,0.576194,1,1,52438.3,45659.7,1695,0.38672334,-6.4487362,239.71289,315.3418,78.7285,235.445,7.86461,-6.53714e-05,29.4227,27.4552
1980-05-18 02:00:01,1,0.0111111,-5.15556,-16.9889,0.702377,1,1,55929.3,45142.0,1695,0.38671511,-6.4485588,239.70776,315.34448,81.404,238.026,6.29382,-0.0298237,30.3863,27.2991
1980-05-18 02:00:42,1,-1.15,-4.92,-16.67,0.969639,1,1,58387.1,47414.4,1695,0.38671505,-6.4485579,239.70386,315.34448,84.7622,236.336,6.16096,0.502397,31.0468,27.9778
1980-05-18 02:01:22,1,-4.03333,-4.64444,-15.1667,0.656779,1,1,59851.4,45208.3,1695,0.38670683,-6.4483786,239.69849,315.34692,82.0649,233.072,7.201,3.44824,31.4337,27.3191
1980-05-18 02:02:03,1,-2.91,-4.61,-15.82,0.604483,1,1,60831.5,46977.0,1695,0.3866986,-6.4481983,239.69702,315.34937,83.1528,235.935,7.6485,1.73952,31.69,27.8484
1980-05-18 02:02:43,1,-6.21111,-3.1,-16.5,0.636736,1,1,54113.5,44977.9,1695,0.3866986,-6.4481983,239.68921,315.34937,86.3275,231.324,10.3029,1.22254,29.889,27.2494
1980-05-18 02:03:24,1,-7.9,-2.98889,-16.4,0.299794,1,1,50653.4,47971.1,1695,0.38669038,-6.4480181,239.68384,315.35181,88.6486,228.32,11.6144,2.64282,28.9176,28.1415
1980-05-18 02:04:04,1,-8.9125,-3.275,-15.5,0.665559,1,1,50322.3,48978.5,1695,0.38668209,-6.4478388,239.68237,315.35425,87.804,228.557,9.0266,3.66373,28.8229,28.4355
1980-05-18 02:04:45,1,-9.6875,-2.8625,-14.725,0.387702,1,1,54104.9,47386.3,1695,0.38668209,-6.4478388,239.67456,315.35425,85.095,226.687,11.6027,5.35314,29.8866,27.9695
1980-05-18 02:05:25,1,-7.1,-5.025,-17.05,0.349106,1,1,45086.3,43151.3,1695,0.38667387,-6.4476585,239.6731,315.35669,85.0983,229.493,8.03795,1.95594,27.2823,26.6904
1980-05-18 02:06:06,1,-9.61111,-4.53333,-15.1556,0.692107,1,1,47049.3,46201.3,1695,0.38666564,-6.4474792,239.66772,315.35913,86.0635,226.259,8.66564,4.18627,27.8698,27.6175
1980-05-18 02:06:46,1,-8.925,-4.375,-15.65,0.276134,1,1,45285.1,45111.5,1695,0.38666564,-6.4474783,239.66382,315.35913,84.4741,226.566,9.01663,3.30887,27.3423,27.2899
1980-05-18 02:07:27,1,-8.7125,-3.6625,-16.15,0.534731,1,1,47138.6,45893.6,1695,0.38665742,-6.447299,239.65869,315.36182,86.2735,226.898,9.94355,2.86923,27.8963,27.5254
1980-05-18 02:08:07,1,-6.175,-4.3125,-17.6,0.339807,1,1,45092.8,44740.5,1695,0.38664913,-6.4471188,239.65332,315.36426,84.6059,228.71,10.1827,-0.539526,27.2842,27.1774
1980-05-18 02:08:48,1,-5.86,-4.14,-17.72,0.431741,1,1,43776.7,45175.6,1695,0.38664913,-6.4471188,239.64941,315.36426,84.1246,228.942,8.83148,-0.256654,26.8831,27.3092
1980-05-18 02:09:28,1,-6.3875,-3.825,-17.4125,0.294215,1,1,43891.3,44154.8,1695,0.38664091,-6.4469385,239.64404,315.3667,85.6884,229.36,9.47985,-0.476183,26.9183,26.999
1980-05-18 02:10:09,1,-6.96,-4.24,-17.0,0.427551,1,1,45173.9,45156.2,1695,0.38663268,-6.4467592,239.64258,315.36914,85.7211,228.248,9.45975,0.722509,27.3087,27.3034
1980-05-18 02:10:49,1,-7.9,-4.3,-16.175,0.818153,1,1,48077.6,44358.9,1695,0.38663268,-6.4467592,239.63477,315.36914,85.3418,229.068,9.16363,2.24573,28.1727,27.0613
1980-05-18 02:11:30,1,-6.82222,-4.32222,-17.2222,0.313877,1,1,45945.4,45457.6,1695,0.38662446,-6.446579,239.62939,315.37158,87.1616,228.812,8.28728,1.20066,27.5409,27.3944
1980-05-18 02:12:10,1,-6.8375,-4.525,-17.2,0.285865,1,1,46884.3,44360.8,1695,0.38661617,-6.4463997,239.62793,315.37402,85.3111,229.197,8.4626,2.24618,27.8209,27.0618
1980-05-18 02:12:51,1,-6.32222,-4.76667,-17.3889,0.481254,1,1,46306.5,46810.7,1695,0.38661617,-6.4463987,239.62012,315.37402,90.1466,229.184,8.66214,1.27031,27.649,27.7991
1980-05-18 02:13:31,1,-6.53333,-4.34444,-17.3778,0.312299,1,1,47785.4,42996.3,1695,0.38660794,-6.4462194,239.61865,315.37646,85.7493,228.649,9.22186,1.61545,28.087,26.6424
1980-05-18 02:14:12,1,-6.07778,-5.1,-17.2111,0.29523,1,1,48910.1,46533.8,1695,0.38659972,-6.4460392,239.61353,315.37915,88.9607,229.433,7.66581,1.82477,28.4156,27.7167
1980-05-18 02:14:52,1,-6.18889,-4.84444,-16.9,0.233598,1,1,52632.9,43929.8,1695,0.38659972,-6.4460392,239.60571,315.37915,87.1653,230.213,8.17474,1.79714,29.4772,26.9301
1980-05-18 02:15:33,1,-6.56667,-4.68889,-16.7222,0.347122,1,1,51775.2,48037.0,1695,0.38659143,-6.445859,239.60425,315.38159,91.3118,228.612,7.89811,2.53604,29.236,28.1608
1980-05-18 02:16:13,1,-6.5125,-4.1875,-17.025,0.414201,1,1,50083.6,47172.3,1695,0.38658321,-6.4456797,239.59888,315.38403,85.2934,229.142,8.43046,1.82839,28.7545,27.9062
1980-05-18 02:16:54,1,-5.71111,-3.91111,-17.3889,0.246456,1,1,51984.5,48540.8,1695,0.38658321,-6.4456797,239.59497,315.38403,85.5051,231.849,9.28216,1.51135,29.2951,28.3081
1980-05-18 02:17:34,1,-5.35,-3.875,-17.8,0.233184,1,1,50048.0,44731.9,1695,0.38657498,-6.4454994,239.5896,315.38647,86.9936,230.32,9.0483,1.14525,28.7443,27.1748
1980-05-18 02:18:15,1,-5.2,-4.1,-17.7,0.0,1,1,50220.1,45766.7,1695,0.38656676,-6.4453201,239.58423,315.38892,91.5016,229.548,9.45599,0.674005,28.7937,27.4873
1980-05-18 02:18:55,1,-5.525,-4.45,-17.6,0.277263,1,1,50005.3,44018.5,1695,0.38656676,-6.4453192,239.58032,315.38892,85.764,229.13,9.0996,1.55598,28.732,26.9573
1980-05-18 02:19:36,1,-5.63333,-4.32222,-17.3889,0.201231,1,1,50216.1,45363.9,1695,0.38655847,-6.4451399,239.57495,315.39136,87.8089,229.361,9.18374,1.13705,28.7925,27.3661
1980-05-18 02:20:16,1,-5.6125,-4.95,-16.9,0.280346,1,1,48418.2,44260.3,1695,0.38655025,-6.4449596,239.57373,315.39404,87.6692,230.828,8.25347,2.3991,28.2724,27.0312
1980-05-18 02:20:57,1,-6.16667,-4.73333,-16.6333,0.301846,1,1,48485.4,45088.2,1695,0.38655025,-6.4449596,239.56592,315.39404,87.2516,229.998,7.95567,2.45629,28.292,27.2828
1980-05-18 02:21:37,1,-6.325,-5.4375,-16.15,0.756121,1,1,49271.5,44960.0,1695,0.38654202,-6.4447794,239.56445,315.39648,87.0825,230.286,8.6269,2.4952,28.5204,27.244
1980-05-18 02:22:18,1,-5.27778,-6.45556,-15.7333,1.63428,1,1,51039.2,48699.8,1695,0.3865338,-6.4446001,239.55908,315.39893,89.5598,227.55,7.82573,4.12817,29.0275,28.3545
1980-05-18 02:22:58,1,-2.1,-6.7,-17.7,0.595819,1,1,57618.1,47367.4,1695,0.3865338,-6.4446001,239.55127,315.39893,86.2969,228.566,8.50655,4.03079,30.8416,27.9639
1980-05-18 02:23:39,1,4.5,-3.63333,-17.8444,0.922691,1,1,59797.1,46250.9,1695,0.38652551,-6.4444199,239.5498,315.40137,85.9736,234.217,7.66182,2.52007,31.4194,27.6324
1980-05-18 02:24:19,1,-7.18889,-6.04444,-15.4889,1.75879,1,1,44789.4,39005.3,1695,0.38651729,-6.4442406,239.54443,315.40381,90.1963,229.224,8.10353,1.91962,27.1923,25.3758
1980-05-18 02:25:00,1,-9.36667,-5.35556,-14.8222,0.339571,1,1,40057.4,39746.7,1695,0.38650906,-6.4440603,239.54297,315.40625,91.8559,230.394,6.70522,-0.0262509,25.7158,25.6158
1980-05-18 02:25:40,1,-10.3,-4.875,-13.95,0.59739,1,1,39895.7,36610.7,1695,0.38650906,-6.4440603,239.53516,315.40625,90.682,232.933,5.48925,-0.0274701,25.6638,24.5845
1980-05-18 02:26:21,1,-9.29,-5.47,-14.47,0.495076,1,1,39838.0,38980.4,1695,0.38650084,-6.4438801,239.52979,315.40869,91.2711,230.53,5.51655,2.06612,25.6452,25.3677
1980-05-18 02:27:01,1,-8.58889,-5.63333,-15.1667,0.648836,1,1,39048.6,36749.6,1695,0.38649255,-6.4437008,239.52856,315.41138,91.1268,232.429,4.92453,0.319199,25.3899,24.6311
1980-05-18 02:27:42,1,-8.53,-5.04,-14.69,0.399249,1,1,38043.4,36607.7,1695,0.38649255,-6.4436998,239.52075,315.41138,91.6647,229.706,5.54775,1.58401,25.0609,24.5835
1980-05-18 02:28:22,1,-9.0875,-4.825,-15.0125,0.348658,1,1,37572.1,35361.1,1695,0.38648432,-6.4435205,239.51929,315.41382,87.8381,231.589,6.76382,3.46954,24.9052,24.1613
1980-05-18 02:29:03,1,-9.8,-4.88,-14.6,0.324962,1,1,37762.2,38293.7,1695,0.3864761,-6.4433403,239.51392,315.41626,89.2561,231.782,6.83855,3.17132,24.9681,25.1433
1980-05-18 02:29:43,1,-8.9375,-5.8375,-14.05,0.68168,1,1,38965.0,35334.6,1695,0.3864761,-6.4433403,239.51001,315.41626,85.8487,232.374,5.81325,1.71824,25.3627,24.1523
1980-05-18 02:30:24,1,-9.29,-5.49,-13.75,0.826015,1,1,41143.1,36492.2,1695,0.38646787,-6.4431601,239.50464,315.4187,90.341,230.465,6.54631,2.78108,26.0619,24.5447
1980-05-18 02:31:04,1,-9.025,-4.775,-14.4,0.226385,1,1,40094.9,35788.3,1695,0.38645959,-6.4429808,239.49927,315.42114,88.9996,230.045,7.51498,2.33455,25.7278,24.3068
1980-05-18 02:31:45,1,-8.56,-4.61,-14.52,0.953362,1,1,40342.5,37824.8,1695,0.38645959,-6.4429808,239.49536,315.42114,91.9893,229.255,5.93283,3.41366,25.8071,24.9889
1980-05-18 02:32:25,1,-7.75,-4.4,-15.525,0.253722,1,1,38700.7,35746.5,1695,0.38645136,-6.4428005,239.48999,315.42358,89.7563,232.301,7.13283,0.815829,25.2765,24.2926
1980-05-18 02:33:06,1,-7.97778,-4.82222,-15.2333,0.285017,1,1,36032.9,37078.0,1695,0.38644314,-6.4426212,239.48853,315.42603,89.3048,229.624,6.84934,1.0569,24.3898,24.7409
1980-05-18 02:33:46,1,-8.8375,-3.1625,-14.8,0.239139,1,1,39590.5,35130.8,1695,0.38644314,-6.4426203,239.48071,315.42603,89.1929,229.764,8.22908,2.48195,25.5654,24.0825
1980-05-18 02:34:27,1,-8.1,-3.33,-16.08,0.770519,1,1,46525.9,42813.8,1695,0.38643485,-6.442441,239.47559,315.42871,91.1438,228.809,9.81128,1.85348,27.7144,26.5858
1980-05-18 02:35:07,1,-7.8,-4.725,-15.925,0.686477,1,1,43160.4,42270.8,1695,0.38642663,-6.4422607,239.47412,315.43115,88.9521,229.914,9.86572,3.9287,26.6932,26.4167
1980-05-18 02:35:48,1,-4.31111,-6.45556,-16.3,2.59039,1,1,43223.1,41580.6,1695,0.38642663,-6.4422607,239.46631,315.43115,90.4424,228.128,9.29496,3.06535,26.7126,26.2001
1980-05-18 02:36:28,1,-0.4625,-8.725,-16.25,1.23155,1,1,63060.2,47781.7,1695,0.3864184,-6.4420805,239.46484,315.43359,88.5321,228.064,12.1937,3.60532,32.2653,28.0859
1980-05-18 02:37:09,1,-3.92222,-7.45556,-17.4444,0.374166,1,1,46647.7,40748.9,1695,0.38641018,-6.4419012,239.45947,315.43604,85.507,227.57,11.3593,2.88873,27.7507,25.9368